Current Weather Conditions: station 62133

sailwx.info

Wind from 220 at 13 knots

Wave height 1.0 meters (3 feet), 4 second period

Last reported at 2019-Jun-18 06:00 UTC.
Time now 2019-Jun-18 07:28 UTC

Location: N 57°06' E 000°54'.
View on Google Maps.

See reports from other nearby stations

  
Tides and Currents Weather Stations Pressure Air Temp Water Temp Dewpoint Dewpoint Depression Visibility Wind Speed Wind Dir Waves Ship Positions
date/time (UTC)wind fromknots sea level pressurealtimeterstation pressurevisibilityair tempwater tempwave heightnotes
2019-Jun-18 06:00 220 13 1.0
2019-Jun-18 05:00 210 13 1.0
2019-Jun-18 04:00 210 13 1.1
2019-Jun-18 03:00 220 13 1.3
2019-Jun-18 02:00 220 15 1.4
2019-Jun-18 01:00 210 14 1.4
2019-Jun-18 00:00 200 15 1.4
2019-Jun-17 23:00 200 19 1.7
2019-Jun-17 22:00 200 20 1.7
2019-Jun-17 21:00 200 20 1.7
2019-Jun-17 20:00 190 18 1.6
2019-Jun-17 19:00 200 21 1.8
2019-Jun-17 18:00 200 21 1.8
2019-Jun-17 17:00 200 21 1.7
2019-Jun-17 16:00 190 20 1.8
2019-Jun-17 15:00 190 19 1.7
2019-Jun-17 14:00 190 17 1.7
2019-Jun-17 13:00 190 20 1.5
2019-Jun-17 12:00 190 20 1.5
2019-Jun-17 11:00 200 20 1.4
2019-Jun-17 10:00 200 20 1.6
2019-Jun-17 09:00 190 21 1.6
2019-Jun-17 08:00 190 21 1.6
2019-Jun-17 07:00 200 21 1.5
2019-Jun-17 06:00 190 20 1.4
2019-Jun-17 05:00 190 25 1.4
2019-Jun-17 04:00 180 24 1.2
2019-Jun-17 03:00 170 22 1.1
2019-Jun-17 02:00 170 18 1.1
2019-Jun-17 01:00 170 19 1.2
2019-Jun-17 00:00 160 18 1.2
2019-Jun-16 23:00 160 18 1.2
2019-Jun-16 22:00 160 17 1.2
2019-Jun-16 21:00 170 19 1.2
2019-Jun-16 20:00 170 19 1.2
2019-Jun-16 19:00 160 18 1.1
2019-Jun-16 18:00 170 13 1.0
2019-Jun-16 17:00 180 15 1.0
2019-Jun-16 16:00 190 14 1.0
2019-Jun-16 15:00 180 17 1.0
2019-Jun-16 14:00 180 15 1.0
2019-Jun-16 13:00 180 15 1.0
2019-Jun-16 12:00 180 13 0.9
2019-Jun-16 11:00 180 11 0.9
2019-Jun-16 10:00 190 13 0.9
2019-Jun-16 09:00 200 13 0.9
2019-Jun-16 08:00 210 13 0.9
2019-Jun-16 07:00 200 13 0.8